HULIANWAN GAOGUI-01 (H*)

Last updated on Mon Sep 07 2026 00:03:02 GMT+0000 (Coordinated Universal Time)

1 59069U 24040A 26249.52716806 .00000140 00000+0 00000+0 0 9990 2 59069 0.0891 335.2600 0001481 40.8637 192.8992 1.00272133 8142
UTC large
Height (km)
Speed (km/s)
/
Latitude / Longitude
Inclination (degrees)
Orbital Period (minutes)
Azimuth
Elevation
Range (km)
Doppler Factor

Next 0 passes for location: London (51.5072 / 0.1276)

No passes found over London.
HULIANWAN GAOGUI-01 (H*)